{"data":{"norad_id":67889,"intl_designator":"2026-035L","name":"STARLINK-36372","alt_names":[],"object_type":"PAYLOAD","status":"ACTIVE","operator":null,"country":"US","launch_date":"2026-02-21","launch_site_code":"AFWTR","launch_vehicle":null,"mission":null,"orbit_class":"UNKNOWN","rcs_meters":null,"size_class":null,"mass_kg":null,"dimensions":null,"purposes":["comms"],"wikipedia_slug":null,"has_3d_model":false,"image_url":null,"decayed_at":null,"tle_current":{"epoch":"2026-05-24T19:24:16.775136Z","epoch_age_seconds":88254,"freshness":"FRESH","line1":"1 67889U 26035L   26144.80852749  .00024841  00000+0  76905-3 0  9992","line2":"2 67889  97.2849  78.3424 0001876  93.8751 266.2707 15.33452723 15654","mean_motion":15.33452723,"eccentricity":0.0001876,"inclination_deg":97.2849,"raan_deg":78.3424,"arg_perigee_deg":93.8751,"mean_anomaly_deg":266.2707,"bstar":0.00076905,"rev_number":1565,"period_min":93.905731712604,"perigee_km":464.23632627013,"apogee_km":466.8040664502,"semimajor_km":6843.6571963602,"source":"CELESTRAK","updated_at":"2026-05-25T13:38:21.733679Z"}}}